VOZ326 YBBN-YMML

Flight info

Callsign VOZ326
Flight time N/A
Altitude 32000
Route BN H91 SANEG Q35 DORSU H119 ML
Aircraft B738/M-SDE2E3FGHIRWXY/LB1

Departure

Time 2026-05-05 09:33
Airport Brisbane International Airport (YBBN)

Arrival

Time N/A
Airport Melbourne Airport (YMML)
Time Latitude Longitude Altitude Speed Heading
2026-05-05 08:59 -27.38719 153.11946 17 ft 0 kts 335°
2026-05-05 09:25 -27.38737 153.11955 18 ft 4 kts 335°
2026-05-05 09:25 -27.38759 153.11969 17 ft 4 kts 297°
2026-05-05 09:25 -27.38764 153.11997 18 ft 3 kts 276°
2026-05-05 09:26 -27.38766 153.12017 18 ft 4 kts 269°
2026-05-05 09:26 -27.38760 153.12046 17 ft 4 kts 246°
2026-05-05 09:26 -27.38753 153.12074 18 ft 4 kts 258°
2026-05-05 09:26 -27.38749 153.12093 17 ft 0 kts 257°
2026-05-05 09:28 -27.38753 153.12090 17 ft 3 kts 224°
2026-05-05 09:29 -27.38805 153.12103 17 ft 11 kts 144°
2026-05-05 09:29 -27.38868 153.12161 17 ft 12 kts 137°
2026-05-05 09:29 -27.38930 153.12214 17 ft 13 kts 174°
2026-05-05 09:29 -27.39028 153.12169 17 ft 17 kts 207°
2026-05-05 09:30 -27.39129 153.12111 17 ft 16 kts 206°
2026-05-05 09:30 -27.39226 153.12057 17 ft 16 kts 206°
2026-05-05 09:30 -27.39343 153.11994 17 ft 22 kts 206°
2026-05-05 09:30 -27.39490 153.11910 17 ft 25 kts 207°
2026-05-05 09:31 -27.39641 153.11822 17 ft 24 kts 206°
2026-05-05 09:31 -27.39784 153.11741 18 ft 23 kts 207°
2026-05-05 09:31 -27.39924 153.11664 17 ft 22 kts 206°
2026-05-05 09:31 -27.40057 153.11585 18 ft 21 kts 208°
2026-05-05 09:32 -27.40176 153.11512 17 ft 15 kts 208°
2026-05-05 09:32 -27.40260 153.11544 17 ft 15 kts 109°
2026-05-05 09:32 -27.40302 153.11645 17 ft 14 kts 118°
2026-05-05 09:32 -27.40317 153.11748 18 ft 14 kts 75°
2026-05-05 09:33 -27.40263 153.11828 18 ft 13 kts 29°
2026-05-05 09:33 -27.39980 153.11994 19 ft 86 kts 27°
2026-05-05 09:33 -27.39225 153.12427 21 ft 156 kts 25°
2026-05-05 09:33 -27.38220 153.12968 619 ft 168 kts 26°
2026-05-05 09:34 -27.37163 153.13631 1372 ft 176 kts 39°
2026-05-05 09:34 -27.36260 153.14618 2031 ft 194 kts 47°
2026-05-05 09:34 -27.35264 153.15806 2296 ft 221 kts 48°
2026-05-05 09:34 -27.34157 153.17125 2550 ft 241 kts 48°
2026-05-05 09:35 -27.32978 153.18515 3056 ft 249 kts 47°
2026-05-05 09:35 -27.30514 153.21401 4237 ft 264 kts 48°
2026-05-05 09:35 -27.29271 153.22918 5088 ft 263 kts 57°
2026-05-05 09:36 -27.28631 153.24803 5851 ft 260 kts 85°
2026-05-05 09:36 -27.28515 153.26844 6613 ft 263 kts 89°
2026-05-05 09:36 -27.28440 153.28915 7333 ft 267 kts 89°
2026-05-05 09:36 -27.28358 153.31014 8090 ft 269 kts 89°
2026-05-05 09:37 -27.28269 153.33124 8832 ft 273 kts 89°
2026-05-05 09:37 -27.28175 153.35270 9580 ft 276 kts 89°
2026-05-05 09:37 -27.28338 153.37410 10248 ft 277 kts 111°
2026-05-05 09:37 -27.29363 153.39238 10800 ft 282 kts 138°
2026-05-05 09:38 -27.31060 153.40350 11338 ft 287 kts 165°
2026-05-05 09:38 -27.33047 153.40693 11922 ft 292 kts 177°
2026-05-05 09:38 -27.35102 153.40844 12490 ft 299 kts 178°
2026-05-05 09:38 -27.37199 153.40991 13077 ft 305 kts 180°
2026-05-05 09:39 -27.38607 153.40926 13420 ft 308 kts 194°
2026-05-05 09:39 -27.40728 153.40264 13607 ft 326 kts 201°
2026-05-05 09:39 -27.42966 153.39476 13792 ft 347 kts 199°
2026-05-05 09:39 -27.45331 153.38684 14086 ft 361 kts 199°
2026-05-05 09:40 -27.47722 153.37777 14567 ft 364 kts 210°
2026-05-05 09:40 -27.49789 153.36113 14876 ft 370 kts 225°
2026-05-05 09:40 -27.51734 153.34164 15311 ft 377 kts 225°
2026-05-05 09:40 -27.54392 153.31593 16085 ft 381 kts 224°
2026-05-05 09:41 -27.55732 153.30270 16482 ft 380 kts 229°
2026-05-05 09:41 -27.57236 153.27874 17012 ft 373 kts 249°
2026-05-05 09:41 -27.58323 153.25261 17623 ft 374 kts 249°
2026-05-05 09:41 -27.59462 153.22619 18189 ft 376 kts 249°
2026-05-05 09:42 -27.60643 153.19966 18690 ft 380 kts 246°
2026-05-05 09:42 -27.62255 153.17572 19206 ft 392 kts 229°
2026-05-05 09:42 -27.64506 153.15754 19792 ft 400 kts 217°
2026-05-05 09:42 -27.66923 153.14170 20322 ft 402 kts 216°
2026-05-05 09:43 -27.69362 153.12607 20814 ft 404 kts 216°
2026-05-05 09:43 -27.71813 153.11029 21271 ft 407 kts 216°
2026-05-05 09:43 -27.74271 153.09421 21755 ft 408 kts 217°
2026-05-05 09:43 -27.76721 153.07798 22280 ft 408 kts 217°
2026-05-05 09:44 -27.79167 153.06167 22772 ft 409 kts 217°
2026-05-05 09:44 -27.81623 153.04527 23274 ft 410 kts 218°
2026-05-05 09:44 -27.84019 153.02792 23714 ft 409 kts 221°
2026-05-05 09:44 -27.86356 153.00953 24060 ft 410 kts 223°
2026-05-05 09:45 -27.88668 152.99076 24379 ft 412 kts 223°
2026-05-05 09:45 -27.91007 152.97163 24716 ft 415 kts 223°
2026-05-05 09:45 -27.93354 152.95250 25043 ft 417 kts 223°
2026-05-05 09:45 -27.95690 152.93355 25374 ft 420 kts 223°
2026-05-05 09:46 -27.98074 152.91433 25699 ft 422 kts 224°
2026-05-05 09:46 -28.00475 152.89500 25968 ft 425 kts 224°
2026-05-05 09:46 -28.02901 152.87554 26275 ft 427 kts 224°
2026-05-05 09:46 -28.05328 152.85609 26617 ft 429 kts 224°
2026-05-05 09:47 -28.07771 152.83653 26911 ft 431 kts 224°
2026-05-05 09:47 -28.10227 152.81682 27215 ft 434 kts 225°
2026-05-05 09:47 -28.12690 152.79695 27474 ft 436 kts 225°
2026-05-05 09:47 -28.15166 152.77702 27791 ft 437 kts 225°
2026-05-05 09:48 -28.17657 152.75698 28076 ft 439 kts 225°
2026-05-05 09:48 -28.20157 152.73688 28383 ft 441 kts 225°
2026-05-05 09:48 -28.22651 152.71672 28724 ft 440 kts 225°
2026-05-05 09:48 -28.25157 152.69650 28887 ft 444 kts 226°
2026-05-05 09:49 -28.27681 152.67613 29088 ft 447 kts 225°
2026-05-05 09:49 -28.30229 152.65565 29388 ft 449 kts 226°
2026-05-05 09:49 -28.32778 152.63520 29723 ft 449 kts 226°
2026-05-05 09:49 -28.35296 152.61498 30079 ft 448 kts 226°
2026-05-05 09:50 -28.37868 152.59426 30427 ft 447 kts 226°
2026-05-05 09:50 -28.40371 152.57405 30682 ft 448 kts 226°
2026-05-05 09:50 -28.42909 152.55351 30896 ft 450 kts 226°
2026-05-05 09:50 -28.45466 152.53278 31115 ft 451 kts 226°
2026-05-05 09:51 -28.48023 152.51209 31450 ft 450 kts 226°
2026-05-05 09:51 -28.50573 152.49143 31706 ft 451 kts 227°
2026-05-05 09:51 -28.53125 152.47074 31952 ft 452 kts 227°
2026-05-05 09:51 -28.55691 152.44995 32260 ft 451 kts 227°
2026-05-05 09:52 -28.58246 152.42925 32594 ft 450 kts 227°
2026-05-05 09:52 -28.60794 152.40860 32897 ft 449 kts 227°
2026-05-05 09:52 -28.63339 152.38792 33115 ft 451 kts 227°
2026-05-05 09:52 -28.65899 152.36710 33370 ft 451 kts 227°
2026-05-05 09:53 -28.68414 152.34666 33679 ft 449 kts 227°